Tacoma Narrows, WA
on Saturday, November 17, 2012

Saturday
Previous Day Next Day
Daily Summary
 ActualAverageRecord
Temperature
Mean Temperature °F °F  
Max Temperature 51°F 48°F 57°F (2008)
Min Temperature 42°F 40°F 30°F (2000)
Degree Days
Heating Degree Days 18    
Moisture
Dew Point 42°F   
Average Humidity 87    
Maximum Humidity 96    
Minimum Humidity 77    
Precipitation
Precipitation 0.36 in in in ()
Wind
Wind Speed 5 mph   
Max Wind Speed 25 mph   
Max Gust Speed 33 mph   
Visibility 7 miles   
Events Rain   
Averages and records for this station are not official NWS values.
Key: T is trace of precipitation, MM is missing value
Source: NWS Daily Summary
Seasonal Weather Averages
Time(PST)TemperatureDew PointHumidity Pressure Visibility Wind DirectionWind SpeedGust SpeedPrecipitationEvents Conditions
12:19 AM 46.4°F 44.6°F 93% 29.69 in 2.5 miles Calm Calm - 0.00 in Rain Light Rain
12:28 AM 46.4°F 44.6°F 93% 29.68 in 5.0 miles Calm Calm - 0.00 in Rain Light Rain
12:53 AM 46.0°F 44.1°F 93% 29.69 in 6.0 miles WSW 5.8 mph - 0.01 in Rain Light Rain
1:53 AM 46.9°F 45.0°F 93% 29.65 in 7.0 miles Calm Calm - 0.01 in   Overcast
2:47 AM 46.4°F 44.6°F 93% 29.63 in 1.2 miles West 6.9 mph - N/A   Overcast
2:53 AM 46.0°F 44.1°F 93% 29.62 in 0.8 miles Calm Calm - 0.00 in Rain Light Rain
3:00 AM 46.4°F 44.6°F 93% 29.62 in 2.0 miles Calm Calm - 0.00 in Rain Light Rain
3:15 AM 46.4°F 44.6°F 93% 29.61 in 3.0 miles Calm Calm - 0.00 in   Overcast
3:53 AM 46.0°F 45.0°F 96% 29.60 in 5.0 miles Calm Calm - 0.00 in   Overcast
4:53 AM 46.9°F 45.0°F 93% 29.58 in 5.0 miles Calm Calm - N/A   Mostly Cloudy
5:53 AM 46.9°F 45.0°F 93% 29.57 in 5.0 miles WSW 3.5 mph - N/A   Overcast
6:53 AM 46.9°F 45.0°F 93% 29.56 in 8.0 miles Calm Calm - N/A   Scattered Clouds
7:53 AM 46.9°F 45.0°F 93% 29.54 in 6.0 miles Calm Calm - N/A   Mostly Cloudy
8:53 AM 51.1°F 44.1°F 77% 29.52 in 10.0 miles SSE 4.6 mph - N/A   Overcast
9:53 AM 51.1°F 45.0°F 80% 29.49 in 10.0 miles Calm Calm - N/A   Scattered Clouds
10:53 AM 51.1°F 46.0°F 83% 29.49 in 10.0 miles WSW 11.5 mph - 0.00 in Rain Light Rain
10:57 AM 48.2°F 46.4°F 93% 29.50 in 9.0 miles West 10.4 mph - 0.00 in Rain Light Rain
11:53 AM 48.0°F 45.0°F 89% 29.54 in 3.0 miles SW 9.2 mph 23.0 mph 0.08 in Rain Light Rain
12:53 PM 46.0°F 42.1°F 86% 29.57 in 3.0 miles WSW 9.2 mph 18.4 mph 0.03 in Rain Light Rain
1:01 PM 44.6°F 42.8°F 93% 29.56 in 3.0 miles WSW 8.1 mph - 0.01 in Rain Light Rain
1:53 PM 45.0°F 41.0°F 86% 29.58 in 3.0 miles SSW 8.1 mph - 0.10 in Rain Light Rain
2:53 PM 45.0°F 39.9°F 82% 29.59 in 10.0 miles South 15.0 mph - 0.05 in Rain Light Rain
3:53 PM 45.0°F 39.0°F 80% 29.62 in 10.0 miles South 11.5 mph - 0.02 in   Overcast
4:53 PM 44.1°F 39.0°F 82% 29.64 in 10.0 miles South 10.4 mph - 0.00 in   Overcast
5:53 PM 45.0°F 39.0°F 80% 29.65 in 10.0 miles South 12.7 mph 21.9 mph 0.00 in   Mostly Cloudy
6:53 PM 44.1°F 39.0°F 82% 29.65 in 10.0 miles South 5.8 mph - N/A   Clear
7:53 PM 44.1°F 39.0°F 82% 29.65 in 10.0 miles South 16.1 mph - N/A   Partly Cloudy
8:53 PM 44.1°F 39.0°F 82% 29.68 in 10.0 miles South 10.4 mph - 0.03 in Rain Light Rain
9:35 PM 44.6°F 39.2°F 81% 29.68 in 10.0 miles South 17.3 mph 23.0 mph 0.01 in Rain Light Rain
9:53 PM 44.1°F 39.0°F 82% 29.70 in 10.0 miles South 25.3 mph 33.4 mph 0.02 in   Overcast
10:13 PM 42.8°F 37.4°F 81% 29.69 in 10.0 miles South 16.1 mph 26.5 mph N/A   Overcast
10:53 PM 44.1°F 39.0°F 82% 29.70 in 10.0 miles South 12.7 mph - N/A   Mostly Cloudy
11:53 PM 44.1°F 37.9°F 79% 29.72 in 10.0 miles South 18.4 mph 24.2 mph 0.01 in   Mostly Cloudy
Moon Phase
Nov. 17 Nov. 20 Nov. 28 Dec. 06 Dec. 13
Sunrise:07:18 AM (PST) Moon Rise:11:06 AM (PST)11/17
Sunset:04:32 PM (PST) Moon Set:08:50 PM (PST)11/17

Copyright © 2014 The Weather Underground, Inc.